Location: Newark
(46.7000°N, 60.6000°W)
Time: 23:44:52
(UTC+00:00)

Vanguard 3 - Pass Details

Date: 31 October 2020
Orbit: 508 x 3262 km, 33.3° (Epoch: 29 November)

Event Time Altitude Azimuth Distance (km) Brightness Sun altitude
Rises 16:18:09 0° 276° (W) 7,156 12.0 28.5°
Reaches altitude 10° 16:27:37 10° 253° (WSW) 5,757 11.9 28.2°
Maximum altitude 16:33:14 12° 234° (SW) 5,190 12.1 28.0°
Drops below altitude 10° 16:38:15 10° 214° (SW) 4,994 12.6 27.8°
Sets 16:45:00 0° 188° (S) 5,334 12.6 27.5°
